DW1973 Weather Reports


Display with metric or nautical units.
time (UTC)temp
F
wind
direction
speed
MPH
gust
MPH
rain 1hr
in
rain 24hr
in
rain mn
in
humidity
%
barometer
mb
20260905133923 76 33 1.0 5.0 0.00 0.00 0.00 90 1014.3
20260905133413 76 5 1.0 6.0 0.00 0.00 0.00 90 1014.5
20260905132922 75 88 2.0 9.0 0.00 0.00 0.00 90 1014.6
20260905132432 75 12 3.0 9.0 0.00 0.00 0.00 90 1014.7
20260905131917 76 13 2.0 4.0 0.00 0.00 0.00 91 1014.8
20260905131448 75 53 1.0 4.0 0.00 0.00 0.00 91 1014.5
20260905130914 75 9 2.0 5.0 0.00 0.00 0.00 90 1014.3
20260905130422 76 279 2.0 5.0 0.00 0.00 0.00 90 1014.2
20260905125935 76 15 2.0 8.0 0.00 0.00 0.00 90 1014.1
20260905125452 76 26 2.0 8.0 0.00 0.00 0.00 90 1014.0
20260905124916 76 13 1.0 8.0 0.00 0.00 0.00 90 1013.9
20260905124428 76 44 2.0 8.0 0.00 0.00 0.00 90 1013.9
20260905123937 76 36 2.0 5.0 0.00 0.00 0.00 91 1013.8
20260905123421 76 323 1.0 5.0 0.00 0.00 0.00 91 1013.7
20260905122929 76 24 1.0 4.0 0.00 0.00 0.00 91 1013.6
20260905122417 76 12 1.0 3.0 0.00 0.00 0.00 91 1013.6
20260905121925 76 5 1.0 4.0 0.00 0.00 0.00 91 1013.7
20260905121436 76 11 2.0 4.0 0.00 0.00 0.00 91 1013.6
20260905120953 76 49 0.0 3.0 0.00 0.00 0.00 92 1013.6
20260905120421 76 42 1.0 3.0 0.00 0.00 0.00 92 1013.5
20260905115932 76 24 0.0 3.0 0.00 0.00 0.00 92 1013.5
20260905115417 76 17 1.0 3.0 0.00 0.00 0.00 92 1013.5
20260905114952 77 233 1.0 3.0 0.00 0.00 0.00 91 1013.3
20260905114424 77 144 0.0 0.0 0.00 0.00 0.00 91 1013.2
20260905113927 77 169 0.0 0.0 0.00 0.00 0.00 91 1013.0
20260905113417 77 183 0.0 1.0 0.00 0.00 0.00 91 1013.0
20260905112929 77 178 0.0 1.0 0.00 0.00 0.00 91 1012.9
20260905112418 77 175 0.0 0.0 0.00 0.00 0.00 91 1012.8
20260905111925 77 180 0.0 0.0 0.00 0.00 0.00 91 1012.8
20260905111436 77 360 0.0 0.0 0.00 0.00 0.00 91 1012.8
20260905110924 77 134 0.0 2.0 0.00 0.00 0.00 91 1012.7
20260905110433 77 138 0.0 2.0 0.00 0.00 0.00 91 1012.7
20260905105945 78 145 0.0 2.0 0.00 0.00 0.00 92 1012.7
20260905105414 78 136 0.0 1.0 0.00 0.00 0.00 92 1012.7
20260905104925 78 136 0.0 0.0 0.00 0.00 0.00 92 1012.7
20260905104433 78 360 0.0 0.0 0.00 0.00 0.00 92 1012.8
20260905103935 78 189 0.0 0.0 0.00 0.00 0.00 91 1012.8
20260905103423 78 188 0.0 0.0 0.00 0.00 0.00 91 1012.7
20260905102951 78 189 0.0 0.0 0.00 0.00 0.00 91 1012.7
20260905102439 78 194 0.0 0.0 0.00 0.00 0.00 91 1012.7
20260905101946 78 190 0.0 0.0 0.00 0.00 0.00 91 1012.7
20260905101417 78 190 0.0 0.0 0.00 0.00 0.00 91 1012.7
20260905100925 78 190 0.0 0.0 0.00 0.00 0.00 91 1012.6
20260905100433 78 191 0.0 0.0 0.00 0.00 0.00 91 1012.6
20260905095923 78 188 0.0 0.0 0.00 0.00 0.00 91 1012.7
20260905095432 78 189 0.0 0.0 0.00 0.00 0.00 90 1012.8
20260905094922 78 190 0.0 0.0 0.00 0.00 0.00 90 1012.7
20260905094425 78 187 0.0 0.0 0.00 0.00 0.00 90 1012.7
20260905093933 78 189 0.0 0.0 0.00 0.00 0.00 90 1012.6
20260905093420 78 190 0.0 0.0 0.00 0.00 0.00 90 1012.7
20260905092932 78 190 0.0 0.0 0.00 0.00 0.00 90 1012.6
20260905092418 78 190 0.0 0.0 0.00 0.00 0.00 90 1012.6
20260905091924 78 190 0.0 0.0 0.00 0.00 0.00 90 1012.6
20260905091416 78 190 0.0 0.0 0.00 0.00 0.00 90 1012.5
20260905090925 78 189 0.0 0.0 0.00 0.00 0.00 89 1012.6
20260905090413 78 191 0.0 0.0 0.00 0.00 0.00 89 1012.6
20260905085924 79 190 0.0 0.0 0.00 0.00 0.00 89 1012.7
20260905085432 79 192 0.0 0.0 0.00 0.00 0.00 89 1012.7
20260905084922 79 188 0.0 0.0 0.00 0.00 0.00 89 1012.7
20260905084430 79 188 0.0 0.0 0.00 0.00 0.00 89 1012.6
20260905083919 79 186 0.0 0.0 0.00 0.00 0.00 89 1012.6
20260905083427 79 190 0.0 0.0 0.00 0.00 0.00 89 1012.6
20260905082932 79 189 0.0 0.0 0.00 0.00 0.00 88 1012.7
20260905082440 79 188 0.0 1.0 0.00 0.00 0.00 88 1012.6
20260905081930 79 192 0.0 1.0 0.00 0.00 0.00 88 1012.6
20260905081443 79 183 0.0 0.0 0.00 0.00 0.00 88 1012.7
20260905080928 79 186 0.0 0.0 0.00 0.00 0.00 88 1012.7
20260905080437 79 188 0.0 0.0 0.00 0.00 0.00 89 1012.5
20260905075927 79 190 0.0 0.0 0.00 0.00 0.00 89 1012.5
20260905075435 79 192 0.0 0.0 0.00 0.00 0.00 89 1012.5
20260905074920 78 189 0.0 0.0 0.00 0.00 0.00 88 1012.6
20260905074414 78 185 0.0 0.0 0.00 0.00 0.00 88 1012.6
20260905073918 78 187 0.0 1.0 0.00 0.00 0.00 88 1012.6
20260905073425 78 187 0.0 1.0 0.00 0.00 0.00 88 1012.6
20260905072915 78 187 0.0 1.0 0.00 0.00 0.00 88 1012.6
20260905072423 78 186 0.0 1.0 0.00 0.00 0.00 88 1012.7
20260905071930 79 174 0.0 0.0 0.00 0.00 0.00 88 1012.7
20260905071451 79 182 0.0 0.0 0.00 0.00 0.00 88 1012.8
20260905070919 79 188 0.0 0.0 0.00 0.00 0.00 87 1012.8
20260905070425 79 184 0.0 0.0 0.00 0.00 0.00 87 1012.8
20260905065914 79 184 0.0 0.0 0.00 0.00 0.00 87 1012.9
20260905065423 79 190 0.0 0.0 0.00 0.00 0.00 87 1013.0
20260905064933 79 186 0.0 0.0 0.00 0.00 0.00 87 1012.9
20260905064444 79 188 0.0 0.0 0.00 0.00 0.00 87 1012.8
20260905063926 79 188 0.0 0.0 0.00 0.00 0.00 86 1013.0
20260905063414 80 185 0.0 0.0 0.00 0.00 0.00 86 1013.0
20260905062945 80 360 0.0 0.0 0.00 0.00 0.00 86 1013.1
20260905062432 80 187 0.0 0.0 0.00 0.00 0.00 85 1013.0
20260905061919 80 186 0.0 0.0 0.00 0.00 0.00 85 1013.1
20260905061432 80 184 0.0 0.0 0.00 0.00 0.00 85 1013.0
20260905060920 80 195 0.0 0.0 0.00 0.00 0.00 85 1013.0
20260905060427 81 182 0.0 0.0 0.00 0.00 0.00 84 1013.0
20260905055918 81 130 0.0 0.0 0.00 0.00 0.00 84 1013.1
20260905055424 81 360 0.0 0.0 0.00 0.00 0.00 84 1013.2
20260905054931 81 360 0.0 0.0 0.00 0.00 0.00 83 1013.1
20260905054442 81 360 0.0 0.0 0.00 0.00 0.00 83 1013.2
20260905053923 81 360 0.0 0.0 0.00 0.00 0.00 83 1013.2
20260905053431 82 360 0.0 0.0 0.00 0.00 0.00 82 1013.1
20260905052921 82 142 0.0 1.0 0.00 0.00 0.00 82 1013.1
20260905052429 82 142 0.0 1.0 0.00 0.00 0.00 82 1013.2
20260905051939 82 143 0.0 0.0 0.00 0.00 0.00 82 1013.1
20260905051427 82 144 0.0 1.0 0.00 0.00 0.00 82 1013.1
20260905050933 83 146 0.0 1.0 0.00 0.00 0.00 82 1013.0
20260905050441 83 146 0.0 1.0 0.00 0.00 0.00 82 1013.1
20260905045934 83 148 0.0 0.0 0.00 0.00 0.00 81 1013.0
20260905045422 83 150 0.0 0.0 0.00 0.00 0.00 81 1013.0
20260905044927 84 151 0.0 0.0 0.00 0.00 0.00 80 1013.0
20260905044415 84 152 0.0 0.0 0.00 0.00 0.00 80 1012.9
20260905043930 84 151 0.0 0.0 0.00 0.00 0.00 80 1012.8
20260905043441 84 151 0.0 1.0 0.00 0.00 0.00 80 1013.0
20260905042923 84 151 0.0 2.0 0.00 0.00 0.00 80 1013.0
20260905042428 84 150 0.0 2.0 0.00 0.00 0.00 80 1013.0
20260905041915 84 150 1.0 6.0 0.00 0.00 0.00 80 1013.0
20260905041445 84 150 2.0 5.0 0.00 0.00 0.00 80 1013.0
20260905040931 84 139 0.0 2.0 0.00 0.00 0.00 81 1013.1
20260905040420 83 138 1.0 2.0 0.00 0.00 0.00 81 1013.0
20260905035931 83 139 0.0 4.0 0.00 0.00 0.00 81 1012.9
20260905035419 83 138 2.0 4.0 0.00 0.00 0.00 81 1012.7
20260905034926 83 140 2.0 4.0 0.00 0.00 0.00 81 1012.8
20260905034415 83 142 2.0 4.0 0.00 0.00 0.00 82 1012.9
20260905033925 83 142 2.0 3.0 0.00 0.00 0.00 82 1013.2
20260905033415 83 143 0.0 2.0 0.00 0.00 0.00 82 1013.4
20260905032927 83 143 0.0 2.0 0.00 0.00 0.00 82 1013.6
20260905032436 83 143 1.0 3.0 0.00 0.00 0.00 82 1013.6
20260905031942 83 143 1.0 3.0 0.00 0.00 0.00 82 1013.6
20260905031426 83 144 0.0 0.0 0.00 0.00 0.00 83 1013.6
20260905030933 83 144 0.0 0.0 0.00 0.00 0.00 83 1013.6
20260905030442 83 143 0.0 0.0 0.00 0.00 0.00 83 1013.7
20260905025935 83 144 0.0 0.0 0.00 0.00 0.00 83 1013.7
20260905025445 83 144 0.0 0.0 0.00 0.00 0.00 82 1013.7
20260905024932 83 145 0.0 0.0 0.00 0.00 0.00 82 1013.7
20260905024436 83 146 0.0 0.0 0.00 0.00 0.00 82 1013.7
20260905023942 83 145 0.0 0.0 0.00 0.00 0.00 81 1013.6
20260905023449 83 146 0.0 0.0 0.00 0.00 0.00 81 1013.7
20260905022917 83 144 0.0 0.0 0.00 0.00 0.00 81 1013.6
20260905022428 84 144 0.0 0.0 0.00 0.00 0.00 80 1013.5
20260905021937 84 199 0.0 0.0 0.00 0.00 0.00 80 1013.5
20260905021426 84 202 0.0 0.0 0.00 0.00 0.00 80 1013.3
20260905020934 84 203 0.0 0.0 0.00 0.00 0.00 79 1013.2
20260905020423 85 203 0.0 0.0 0.00 0.00 0.00 79 1013.2
20260905015916 85 204 0.0 0.0 0.00 0.00 0.00 78 1013.0
20260905015425 85 204 0.0 0.0 0.00 0.00 0.00 78 1013.0
20260905014926 85 204 0.0 0.0 0.00 0.00 0.00 78 1013.0
20260905014435 85 204 0.0 0.0 0.00 0.00 0.00 78 1012.9
20260905013921 85 204 0.0 0.0 0.00 0.00 0.00 77 1012.8
20260905013429 86 204 0.0 0.0 0.00 0.00 0.00 77 1012.8
20260905012921 86 204 0.0 0.0 0.00 0.00 0.00 77 1012.8
20260905012428 86 204 0.0 0.0 0.00 0.00 0.00 76 1012.8
20260905011917 86 204 0.0 0.0 0.00 0.00 0.00 76 1012.8
20260905011429 86 204 0.0 0.0 0.00 0.00 0.00 76 1012.7
20260905010936 87 204 0.0 0.0 0.00 0.00 0.00 75 1012.6
20260905010444 87 204 0.0 0.0 0.00 0.00 0.00 75 1012.4
20260905005915 87 204 0.0 0.0 0.00 0.00 0.00 75 1012.3
20260905005426 87 204 0.0 1.0 0.00 0.00 0.00 75 1012.2
20260905004928 87 204 0.0 1.0 0.00 0.00 0.00 75 1012.3
20260905004420 87 204 0.0 2.0 0.00 0.00 0.00 74 1012.3
20260905003929 87 204 0.0 3.0 0.00 0.00 0.00 74 1012.3
20260905003418 88 204 1.0 3.0 0.00 0.00 0.00 74 1012.1
20260905002929 88 204 0.0 3.0 0.00 0.00 0.00 73 1012.1
20260905002417 88 204 1.0 3.0 0.00 0.00 0.00 73 1012.0
20260905001925 88 204 2.0 3.0 0.00 0.00 0.00 72 1012.1
20260905001417 89 204 1.0 4.0 0.00 0.00 0.00 72 1012.2
20260905000925 89 205 2.0 4.0 0.00 0.00 0.00 71 1012.0
20260905000433 89 201 2.0 3.0 0.00 0.00 0.00 70 1012.0
20260904235945 89 200 2.0 3.0 0.00 0.00 0.00 70 1012.0
20260904235432 89 228 1.0 4.0 0.00 0.00 0.00 70 1012.2
20260904234921 89 209 2.0 4.0 0.00 0.00 0.00 69 1012.1
20260904234430 90 202 3.0 4.0 0.00 0.00 0.00 69 1012.1
20260904233916 90 209 2.0 5.0 0.00 0.00 0.00 69 1012.1
20260904233453 90 209 2.0 6.0 0.00 0.00 0.00 69 1012.3
20260904232922 90 214 3.0 6.0 0.00 0.00 0.00 69 1012.2
20260904232431 90 259 1.0 6.0 0.00 0.00 0.00 68 1012.3
20260904231920 91 227 3.0 6.0 0.00 0.00 0.00 68 1012.3
20260904231451 91 223 2.0 4.0 0.00 0.00 0.00 68 1012.4
20260904230939 91 221 2.0 6.0 0.00 0.00 0.00 67 1012.5
20260904230428 91 244 3.0 6.0 0.00 0.00 0.00 66 1012.4
20260904225918 91 213 1.0 5.0 0.00 0.00 0.00 66 1012.5
20260904225424 91 239 2.0 5.0 0.00 0.00 0.00 66 1012.4
20260904224929 91 210 3.0 7.0 0.00 0.00 0.00 66 1012.3
20260904224437 92 235 3.0 7.0 0.00 0.00 0.00 65 1012.3
20260904223942 92 259 1.0 6.0 0.00 0.00 0.00 65 1012.3
20260904223430 92 265 2.0 4.0 0.00 0.00 0.00 64 1012.5
20260904222940 92 213 1.0 7.0 0.00 0.00 0.00 65 1012.4
20260904222427 92 220 3.0 6.0 0.00 0.00 0.00 65 1012.5
20260904221916 92 255 2.0 6.0 0.00 0.00 0.00 66 1012.3
20260904221428 92 232 3.0 6.0 0.00 0.00 0.00 65 1012.3
20260904220937 92 207 2.0 5.0 0.00 0.00 0.00 65 1012.4
20260904220424 91 238 2.0 8.0 0.00 0.00 0.00 65 1012.3
20260904215949 91 267 2.0 8.0 0.00 0.00 0.00 65 1012.3
20260904215436 91 215 4.0 6.0 0.00 0.00 0.00 65 1012.3
20260904214942 91 219 3.0 9.0 0.00 0.00 0.00 65 1012.3
20260904214428 91 205 5.0 9.0 0.00 0.00 0.00 64 1012.2
20260904213934 92 241 5.0 8.0 0.00 0.00 0.00 64 1012.1
20260904213442 92 217 3.0 7.0 0.00 0.00 0.00 64 1012.1
20260904212928 92 217 2.0 7.0 0.00 0.00 0.00 64 1012.2
20260904212435 91 175 3.0 7.0 0.00 0.00 0.00 64 1012.1
20260904211921 91 234 3.0 8.0 0.00 0.00 0.00 64 1012.0
20260904211435 91 220 4.0 8.0 0.00 0.00 0.00 64 1012.1
20260904210924 91 225 4.0 8.0 0.00 0.00 0.00 64 1012.1
20260904210430 91 209 4.0 7.0 0.00 0.00 0.00 64 1012.2
20260904205917 91 208 4.0 7.0 0.00 0.00 0.00 65 1012.5
20260904205425 91 190 3.0 7.0 0.00 0.00 0.00 65 1012.6
20260904204934 91 215 4.0 7.0 0.00 0.00 0.00 66 1012.7
20260904204444 91 187 5.0 8.0 0.00 0.00 0.00 65 1012.7
20260904203954 91 216 3.0 8.0 0.00 0.00 0.00 65 1012.8
20260904203421 90 201 3.0 7.0 0.00 0.00 0.00 66 1012.9
20260904202933 90 155 3.0 6.0 0.00 0.00 0.00 66 1012.9
20260904202423 90 247 2.0 6.0 0.00 0.00 0.00 66 1012.9
20260904201932 90 173 3.0 7.0 0.00 0.00 0.00 66 1013.0
20260904201424 90 208 2.0 7.0 0.00 0.00 0.00 67 1013.0
20260904200931 90 204 3.0 6.0 0.00 0.00 0.00 67 1013.0
20260904200439 89 184 3.0 10.0 0.00 0.00 0.00 66 1013.1
20260904195927 89 222 4.0 10.0 0.00 0.00 0.00 66 1013.1
20260904195433 89 220 4.0 8.0 0.00 0.00 0.00 67 1013.2
20260904194921 89 191 4.0 7.0 0.00 0.00 0.00 66 1013.3
20260904194412 89 186 2.0 7.0 0.00 0.00 0.00 68 1013.4
20260904193921 89 162 4.0 7.0 0.00 0.00 0.00 67 1013.7
20260904193429 89 216 4.0 7.0 0.00 0.00 0.00 68 1013.8
20260904192919 88 216 3.0 8.0 0.00 0.00 0.00 67 1013.8
20260904192426 88 215 3.0 8.0 0.00 0.00 0.00 68 1013.9
20260904191915 88 153 4.0 8.0 0.00 0.00 0.00 68 1014.0
20260904191445 88 129 5.0 8.0 0.00 0.00 0.00 67 1013.9
20260904190931 88 196 3.0 8.0 0.00 0.00 0.00 68 1014.0
20260904190419 88 158 4.0 10.0 0.00 0.00 0.00 69 1013.9
20260904185928 87 134 5.0 10.0 0.00 0.00 0.00 68 1014.1
20260904185416 87 130 5.0 10.0 0.00 0.00 0.00 68 1014.1
20260904184919 87 150 4.0 10.0 0.00 0.00 0.00 69 1014.2
20260904184428 87 131 6.0 11.0 0.00 0.00 0.00 68 1014.2
20260904183918 87 150 7.0 12.0 0.00 0.00 0.00 69 1014.3
20260904183423 86 121 5.0 11.0 0.00 0.00 0.00 69 1014.3
20260904182934 86 182 7.0 13.0 0.00 0.00 0.00 68 1014.5
20260904182442 86 107 7.0 13.0 0.00 0.00 0.00 67 1014.6
20260904181913 86 124 6.0 11.0 0.00 0.00 0.00 68 1014.6
20260904181423 86 118 5.0 11.0 0.00 0.00 0.00 67 1014.6
20260904180932 86 114 4.0 13.0 0.00 0.00 0.00 67 1014.9
20260904180421 85 115 9.0 13.0 0.00 0.00 0.00 66 1015.1
20260904175913 85 145 6.0 13.0 0.00 0.00 0.00 68 1015.3
20260904175450 85 86 4.0 11.0 0.00 0.00 0.00 69 1015.6
20260904174916 85 220 3.0 9.0 0.00 0.00 0.00 68 1015.6
20260904174426 85 84 3.0 8.0 0.00 0.00 0.00 69 1015.8
20260904173936 85 67 3.0 8.0 0.00 0.00 0.00 68 1016.0
20260904173440 84 112 3.0 8.0 0.00 0.00 0.00 69 1016.0
20260904172929 84 48 2.0 7.0 0.00 0.00 0.00 70 1016.2
20260904172417 84 257 2.0 6.0 0.00 0.00 0.00 70 1016.2
20260904171924 83 19 3.0 13.0 0.00 0.00 0.00 70 1016.2
20260904171437 83 116 7.0 13.0 0.00 0.00 0.00 71 1016.2
20260904170949 83 34 2.0 11.0 0.00 0.00 0.00 71 1016.3
20260904170433 83 148 4.0 10.0 0.00 0.00 0.00 71 1016.2
20260904165953 83 121 4.0 8.0 0.00 0.00 0.00 71 1016.5
20260904165422 83 76 3.0 8.0 0.00 0.00 0.00 70 1016.6
20260904164927 83 55 2.0 12.0 0.00 0.00 0.00 72 1016.5
20260904164419 83 82 3.0 12.0 0.00 0.00 0.00 72 1016.6
20260904163925 83 109 3.0 11.0 0.00 0.00 0.00 71 1016.7
20260904163413 84 38 2.0 15.0 0.00 0.00 0.00 73 1016.7
20260904162926 84 94 5.0 15.0 0.00 0.00 0.00 71 1016.6
20260904162413 85 36 2.0 14.0 0.00 0.00 0.00 72 1016.5
20260904161919 85 5 2.0 9.0 0.00 0.00 0.00 72 1016.3
20260904161430 85 114 2.0 13.0 0.00 0.00 0.00 72 1016.3
20260904160917 85 17 4.0 13.0 0.00 0.00 0.00 73 1016.2
20260904160425 86 103 3.0 8.0 0.00 0.00 0.00 74 1016.1
20260904155915 86 108 2.0 12.0 0.00 0.00 0.00 74 1016.1
20260904155449 86 107 4.0 12.0 0.00 0.00 0.00 74 1016.1
20260904154935 86 36 3.0 10.0 0.00 0.00 0.00 74 1015.9
20260904154422 86 342 2.0 6.0 0.00 0.00 0.00 75 1015.8
20260904153930 86 360 2.0 5.0 0.00 0.00 0.00 74 1015.6
20260904153415 86 93 1.0 4.0 0.00 0.00 0.00 74 1015.5
20260904152955 86 104 1.0 4.0 0.00 0.00 0.00 75 1015.5
20260904152443 85 138 1.0 8.0 0.00 0.00 0.00 75 1015.4
20260904151948 85 351 1.0 8.0 0.00 0.00 0.00 75 1015.4
20260904151422 85 35 2.0 6.0 0.00 0.00 0.00 76 1015.4
20260904150928 85 5 3.0 6.0 0.00 0.00 0.00 75 1015.1
20260904150415 85 48 2.0 5.0 0.00 0.00 0.00 75 1015.2
20260904145927 85 355 1.0 5.0 0.00 0.00 0.00 75 1015.1
20260904145436 85 38 1.0 5.0 0.00 0.00 0.00 76 1015.1
20260904144919 85 30 0.0 3.0 0.00 0.00 0.00 75 1015.0
20260904144431 85 360 1.0 8.0 0.00 0.00 0.00 75 1014.9
20260904143921 86 18 3.0 8.0 0.00 0.00 0.00 74 1015.0
20260904143427 86 38 2.0 5.0 0.00 0.00 0.00 73 1014.8
20260904142938 86 70 1.0 5.0 0.00 0.00 0.00 73 1014.8
20260904142426 85 40 1.0 3.0 0.00 0.00 0.00 73 1014.9
20260904141913 85 13 0.0 2.0 0.00 0.00 0.00 74 1014.9
20260904141425 85 17 0.0 2.0 0.00 0.00 0.00 75 1015.1
20260904140935 84 24 0.0 2.0 0.00 0.00 0.00 75 1015.0
20260904140424 84 153 0.0 2.0 0.00 0.00 0.00 75 1014.9
20260904135933 84 153 0.0 2.0 0.00 0.00 0.00 75 1014.7
20260904135435 83 153 1.0 2.0 0.00 0.00 0.00 74 1014.6
20260904134943 83 76 0.0 2.0 0.00 0.00 0.00 76 1014.6
20260904134432 82 70 0.0 2.0 0.00 0.00 0.00 77 1014.6